Simultaneous Nadir Overpasses (SNOs) Predictions

Prediction of SNOs over PacNW region [( 10.00, 139.50) to ( 22.70, 165.60)] between NOAA-19 and NPP Satellites:

Table of predicted SNOs over PacNW region for the next 30.0 days since TLE Epoch: 5/2/2014
Index Date (NOAA-19) Time (NOAA-19) NOAA-19 Lat,Lon Date (NPP) Time (NPP) NPP Lat,Lon Distance(km) Time Diff (sec)
1 05/08/2014 16:07:23 22.66, 149.32 05/08/2014 16:07:23 23.85, 144.60 500.22 0
2 05/09/2014 03:23:44 22.67, 152.74 05/09/2014 03:20:12 21.93, 148.95 398.74 212
3 05/21/2014 15:25:36 18.75, 159.21 05/21/2014 15:24:29 19.71, 154.67 488.40 67




NCC Satellite Simultaneous Nadir Overpasses (SNOs) Prediction Service
